Simultaneous Nadir Overpasses (SNOs) Predictions

Prediction of SNOs between NOAA-15 and METOP-C Satellite Orbit:

Table of predicted SNOs for the next 14.0 days since TLE Epoch: 6/12/2020
Index Date (NOAA-15) Time (NOAA-15) Lat,Lon (NOAA-15) SZA (NOAA-15 ) Date (METOP-C) Time (METOP-C) Lat,Lon (METOP-C) SZA (METOP-C ) Distance(km) Time Diff (sec)
1 06/13/2020 20:56:35 80.93, -98.64 59.42 06/13/2020 20:55:21 80.92, -98.78 59.37 2.80 74
2 06/13/2020 21:47:06 -80.92, 68.89 120.57 06/13/2020 21:46:02 -80.93, 68.83 120.60 1.60 64
3 06/13/2020 22:37:38 80.94,-124.08 59.41 06/13/2020 22:36:42 80.93,-123.91 59.40 3.24 56
4 06/13/2020 23:28:09 -80.93, 43.45 120.59 06/13/2020 23:27:24 -80.92, 43.34 120.62 2.02 45
5 06/14/2020 00:18:40 80.93,-149.16 59.42 06/14/2020 00:18:03 80.94,-149.04 59.42 2.38 37
6 06/14/2020 01:09:11 -80.92, 18.37 120.58 06/14/2020 01:08:45 -80.93, 18.21 120.60 3.03 26
7 06/14/2020 01:59:43 80.94,-174.60 59.40 06/14/2020 01:59:25 80.93,-174.53 59.40 1.55 18
8 06/14/2020 02:50:14 -80.93, -7.08 120.59 06/14/2020 02:50:06 -80.94, -6.92 120.57 3.27 8
9 06/14/2020 03:40:45 80.93, 160.32 59.41 06/14/2020 03:40:46 80.94, 160.34 59.42 1.38 1
10 06/14/2020 04:31:17 -80.94, -32.53 120.61 06/14/2020 04:31:28 -80.94, -32.40 120.59 2.15 11
11 06/14/2020 05:21:48 80.94, 134.88 59.40 06/14/2020 05:22:08 80.93, 134.85 59.40 0.59 20
12 06/14/2020 06:12:19 -80.93, -57.61 120.60 06/14/2020 06:12:49 -80.95, -57.53 120.57 2.28 30
13 06/14/2020 07:02:50 80.93, 109.80 59.40 06/14/2020 07:03:29 80.94, 109.73 59.42 2.03 39
14 06/14/2020 07:53:22 -80.94, -83.06 120.62 06/14/2020 07:54:11 -80.94, -83.02 120.59 0.62 49
15 06/14/2020 08:43:53 80.94, 84.36 59.39 06/14/2020 08:44:51 80.94, 84.24 59.40 2.06 58
16 06/14/2020 09:34:25 -80.95,-108.50 120.63 06/14/2020 09:35:33 -80.93,-108.51 120.62 1.71 68




NCC Satellite Simultaneous Nadir Overpasses (SNOs) Prediction Service
